Location: Newark
(33.9439°N, 86.0617°W)
Time: 07:38:17
(UTC+00:00)

N. Korean satellite - Visible Passes

Search period start: 22 January 2020 00:00
Search period end: 01 February 2020 00:00
Orbit: 454 x 507 km, 97.2° (Epoch: 21 January)

Date Brightness Start Highest point End Pass type
(mag) Time Alt. Az. Time Alt. Az. Time Alt. Az.
22 Jan 6.7 11:47:38 10° N 11:51:04 48° WNW 11:54:33 10° SSW visible
22 Jan 10.2 23:55:04 10° WSW 23:56:02 11° W 23:57:00 10° WNW visible
23 Jan 6.8 11:22:04 10° NNE 11:25:38 69° E 11:29:14 10° S visible
23 Jan 9.2 23:27:34 10° SSW 23:30:24 24° W 23:33:15 10° NW visible
24 Jan 8.7 10:56:57 10° NE 11:00:06 28° E 11:03:17 10° SSE visible
25 Jan 9.9 10:32:42 10° ENE 10:34:30 13° E 10:36:18 10° SE visible
25 Jan 7.5 12:04:47 10° NNW 12:07:53 28° WNW 12:11:00 10° SW visible
26 Jan 6.5 11:38:55 10° N 11:42:29 65° WNW 11:46:06 10° SSW visible
26 Jan 9.8 23:45:25 10° SW 23:47:20 14° W 23:49:16 10° WNW visible
27 Jan 7.5 11:13:29 10° NNE 11:17:01 51° E 11:20:34 10° S visible
28 Jan 9.2 10:48:34 10° NE 10:51:28 22° E 10:54:23 10° SSE visible
29 Jan 10.2 10:25:17 10° E 10:25:49 10° E 10:26:22 10° ESE visible
29 Jan 7.1 11:55:57 10° N 11:59:18 36° WNW 12:02:40 10° SW visible
30 Jan 6.5 11:30:14 10° N 11:33:52 87° WNW 11:37:33 10° SSW visible
30 Jan 9.7 23:36:09 10° SW 23:38:37 19° W 23:41:06 10° NW visible
31 Jan 8.1 11:04:56 10° NNE 11:08:23 38° E 11:11:50 10° SSE visible
